Home   Weather   Sevilla   Past weeks

Flag for Spain Past Weather in Sevilla, Spain — Yesterday and Last 2 Weeks

Now
45 °F

Clear.


Feels Like: 45 °F
Forecast: 31 / 58 °F
Wind: No wind

Location: Sevilla / San Pablo

Current Time: Jan 23, 2017 at 10:28:52 pm

Latest Report: Jan 23, 2017 at 9:30 pm


Visibility: 10 mi

Pressure: 30.18 "Hg

Humidity: 81%

Dew Point: 39 °F

Location of SevillaLocation

Past Weather in Sevilla — Graph

°F

Sevilla Temperature Yesterday

Maximum temperature yesterday: 59 °F (at 4:00 pm)
Minimum temperature yesterday: 34 °F (at 6:30 am)
Average temperature yesterday: 46 °F

High & Low Weather Summary for the Past Weeks

 TemperatureHumidityPressure
High66 °F (Jan 9, 5:30 pm)100% (Jan 9, 5:00 am)30.45 "Hg (Jan 9, 5:00 am)
Low32 °F (Jan 19, 2:30 am)20% (Jan 18, 4:00 pm)29.92 "Hg (Jan 20, 2:30 am)
Average47 °F69%30.17 "Hg
* Reported Jan 8 9:00 pm — Jan 23 9:00 pm, Sevilla, Weather by CustomWeather, © 2017

Note: Actual official high and low records may vary slightly from our data, if they occured in-between our weather recording intervals... More about our weather records

Advertising

Sevilla Weather History for the Previous 24 Hours

Scroll right to see more
 ConditionsComfort  
Time TempWeatherWind HumidityBarometerVisibility
9:00 pm
Mon, Jan 23
46 °FClear.2 mph76%30.15 "Hg10 mi
8:30 pm50 °FClear.No wind67%30.15 "Hg10 mi
8:00 pm52 °FClear.3 mph62%30.15 "Hg10 mi
7:30 pm50 °FClear.2 mph62%30.15 "Hg10 mi
7:00 pm54 °FClear.No wind58%30.12 "Hg10 mi
6:30 pm57 °FSunny.1 mph48%30.12 "Hg10 mi
6:00 pm57 °FSunny.2 mph48%30.12 "Hg10 mi
5:30 pm59 °FSunny.2 mph42%30.09 "Hg10 mi
5:00 pm59 °FSunny.2 mph45%30.09 "Hg10 mi
4:30 pm59 °FSunny.2 mph45%30.09 "Hg10 mi
4:00 pm59 °FSunny.No wind45%30.09 "Hg10 mi
3:30 pm59 °FSunny.No wind45%30.09 "Hg10 mi
3:00 pm57 °FSunny.1 mph51%30.09 "Hg10 mi
2:30 pm57 °FSunny.No wind51%30.09 "Hg10 mi
2:00 pm55 °FSunny.1 mph55%30.12 "Hg10 mi
1:30 pm54 °FPassing clouds.5 mph58%30.12 "HgN/A
1:00 pm54 °FSunny.2 mph63%30.12 "Hg10 mi
12:30 pm50 °FSunny.2 mph67%30.15 "Hg10 mi
12:00 pm48 °FPassing clouds.3 mph71%30.15 "HgN/A
11:30 am46 °FPassing clouds.6 mph71%30.15 "HgN/A
11:00 am45 °FSunny.7 mph81%30.15 "Hg10 mi
10:30 am41 °FSunny.1 mph87%30.12 "Hg10 mi
10:00 am37 °FSunny.No wind93%30.12 "Hg10 mi
9:30 am36 °FSunny.1 mph93%30.12 "Hg10 mi
8:30 am36 °FClear.No wind93%30.09 "Hg10 mi
8:00 am36 °FClear.No wind93%30.09 "Hg10 mi
7:30 am36 °FClear.1 mph93%30.09 "Hg10 mi
7:00 am34 °FClear.No wind93%30.09 "Hg10 mi
6:30 am36 °FClear.1 mph93%30.07 "Hg10 mi
6:00 am34 °FClear.No wind93%30.07 "Hg10 mi
5:30 am34 °FClear.1 mph93%30.07 "Hg10 mi
5:00 am36 °FClear.2 mph93%30.07 "Hg10 mi
4:30 am37 °FClear.1 mph87%30.07 "Hg10 mi
4:00 am37 °FClear.2 mph87%30.07 "Hg10 mi
3:30 am37 °FClear.No wind93%30.07 "Hg10 mi
3:00 am37 °FChilly.2 mph87%30.07 "HgN/A
2:30 am37 °FChilly.2 mph93%30.07 "HgN/A
2:00 am37 °FChilly.2 mph93%30.07 "HgN/A
1:30 am39 °FChilly.No wind87%30.07 "HgN/A
1:00 am39 °FClear.3 mph87%30.09 "Hg10 mi
12:30 am39 °FClear.No wind87%30.09 "Hg10 mi
12:00 am41 °FClear.No wind81%30.09 "Hg10 mi
11:30 pm
Sun, Jan 22
45 °FClear.No wind76%30.09 "Hg10 mi
11:00 pm45 °FClear.3 mph76%30.07 "Hg10 mi
10:30 pm46 °FClear.5 mph71%30.07 "Hg10 mi
10:00 pm46 °FClear.6 mph71%30.07 "Hg10 mi
Weather by CustomWeather, © 2017

See weather overviewHow to use our weather pages